Rechercher aéroport 
image banner adimage banner adimage banner ad
image banner ad

SVPG - El Progreso Airport

Situé à Peninsula De Paraguana, Venezuela

ICAO - SVPG, IATA -

Données fournies par Airmate  

Information générale

Coordonnées: N11°57'37" W70°32'16"
Élévation : 984 feet MSL.
 
Voir autres Aéroports à Apure

Données opérationnelles

Special qualification required
Heure actuelle UTC:
Heure actuelle locale:
TAF: TAF SVJC 071600Z 0718/0818 11006KT 9999 SCT016 TX32/0717Z TN25/0717Z BECMG 0718/0722 02007KT 9999 BKN016
Voir NOTAMs / SUP AIP / TFR affectant cet aéroport [VIEW]
Fréquences de communication: [VIEW]

Pistes:

Coordonnées de l'aéroport

Adresse: Peninsula De Paraguana Venezuela

Vue satellite de SVPG